KLM73D EHAM-EPWA

Flight info

Callsign KLM73D
Flight time N/A
Altitude 37000
Route ARNEM L620 SUVOX Z718 OSNAD DCT HLZ DCT SUBIX DCT OBOKU DCT DOSIX DCT BIMPA
Aircraft B738/M-SDE2E3FGHIRWXY/LB1

Departure

Time 2026-04-29 20:12
Airport Amsterdam Airport Schiphol (EHAM)

Arrival

Time N/A
Airport Warsaw Chopin Airport (EPWA)
Time Latitude Longitude Altitude Speed Heading
2026-04-29 19:35 52.30895 4.77367 -2 ft 0 kts
2026-04-29 19:59 52.30892 4.77366 -2 ft 3 kts
2026-04-29 20:00 52.30866 4.77368 -2 ft 4 kts 353°
2026-04-29 20:00 52.30848 4.77367 -2 ft 2 kts 60°
2026-04-29 20:00 52.30842 4.77338 -2 ft 1 kts 79°
2026-04-29 20:00 52.30842 4.77337 -2 ft 0 kts 79°
2026-04-29 20:05 52.30842 4.77349 -2 ft 3 kts 85°
2026-04-29 20:05 52.30838 4.77405 -2 ft 7 kts 97°
2026-04-29 20:05 52.30833 4.77500 -2 ft 10 kts 94°
2026-04-29 20:05 52.30870 4.77604 -2 ft 13 kts 14°
2026-04-29 20:06 52.30971 4.77617 -2 ft 16 kts
2026-04-29 20:06 52.31093 4.77627 -2 ft 18 kts
2026-04-29 20:06 52.31223 4.77640 -2 ft 18 kts
2026-04-29 20:06 52.31343 4.77651 -2 ft 17 kts
2026-04-29 20:07 52.31454 4.77632 -2 ft 17 kts 335°
2026-04-29 20:07 52.31546 4.77497 -2 ft 18 kts 308°
2026-04-29 20:07 52.31575 4.77292 -2 ft 20 kts 266°
2026-04-29 20:07 52.31566 4.77048 -2 ft 21 kts 266°
2026-04-29 20:08 52.31558 4.76815 -2 ft 21 kts 267°
2026-04-29 20:08 52.31553 4.76655 -2 ft 21 kts 266°
2026-04-29 20:08 52.31542 4.76331 -2 ft 21 kts 266°
2026-04-29 20:08 52.31534 4.76097 -1 ft 20 kts 266°
2026-04-29 20:09 52.31526 4.75870 -2 ft 20 kts 266°
2026-04-29 20:09 52.31518 4.75638 -2 ft 20 kts 267°
2026-04-29 20:09 52.31512 4.75433 -2 ft 16 kts 267°
2026-04-29 20:09 52.31505 4.75236 -2 ft 19 kts 267°
2026-04-29 20:10 52.31498 4.75014 -2 ft 20 kts 266°
2026-04-29 20:10 52.31491 4.74812 -2 ft 14 kts 266°
2026-04-29 20:10 52.31512 4.74679 -2 ft 12 kts 326°
2026-04-29 20:10 52.31583 4.74659 -1 ft 11 kts 356°
2026-04-29 20:11 52.31654 4.74704 0 ft 11 kts 50°
2026-04-29 20:11 52.31668 4.74797 -1 ft 0 kts 86°
2026-04-29 20:11 52.31670 4.74855 -3 ft 20 kts 87°
2026-04-29 20:11 52.31687 4.75362 -4 ft 72 kts 86°
2026-04-29 20:12 52.31726 4.76476 -2 ft 123 kts 86°
2026-04-29 20:12 52.31779 4.78068 90 ft 153 kts 86°
2026-04-29 20:12 52.31839 4.79890 424 ft 170 kts 86°
2026-04-29 20:12 52.31920 4.81889 892 ft 182 kts 85°
2026-04-29 20:13 52.31996 4.84041 1505 ft 196 kts 87°
2026-04-29 20:13 52.32037 4.85556 2129 ft 199 kts 89°
2026-04-29 20:13 52.31633 4.88449 3506 ft 197 kts 112°
2026-04-29 20:13 52.31054 4.90466 4573 ft 196 kts 111°
2026-04-29 20:14 52.30510 4.92524 5504 ft 199 kts 110°
2026-04-29 20:14 52.29953 4.94689 6042 ft 220 kts 111°
2026-04-29 20:14 52.29396 4.97089 5829 ft 227 kts 104°
2026-04-29 20:14 52.28983 4.99590 5835 ft 234 kts 104°
2026-04-29 20:15 52.28528 5.02226 6058 ft 241 kts 105°
2026-04-29 20:15 52.28067 5.04841 6197 ft 244 kts 105°
2026-04-29 20:15 52.27601 5.07493 7087 ft 246 kts 105°
2026-04-29 20:15 52.27123 5.10226 7927 ft 253 kts 104°
2026-04-29 20:16 52.26634 5.13025 8807 ft 259 kts 104°
2026-04-29 20:16 52.26135 5.15880 9692 ft 264 kts 104°
2026-04-29 20:16 52.25625 5.18782 10551 ft 269 kts 104°
2026-04-29 20:16 52.25103 5.21764 11103 ft 285 kts 103°
2026-04-29 20:17 52.24550 5.24975 11594 ft 302 kts 101°
2026-04-29 20:17 52.24259 5.28445 12065 ft 317 kts 91°
2026-04-29 20:17 52.24107 5.32131 12504 ft 334 kts 92°
2026-04-29 20:17 52.23921 5.36014 12916 ft 352 kts 92°
2026-04-29 20:18 52.23706 5.40068 13434 ft 364 kts 93°
2026-04-29 20:18 52.23482 5.44219 14148 ft 370 kts 93°
2026-04-29 20:18 52.23261 5.48439 14759 ft 379 kts 92°
2026-04-29 20:18 52.22970 5.52758 15354 ft 388 kts 99°
2026-04-29 20:19 52.22099 5.56959 16064 ft 396 kts 110°
2026-04-29 20:19 52.21015 5.61118 16754 ft 399 kts 109°
2026-04-29 20:19 52.19976 5.65334 17415 ft 403 kts 108°
2026-04-29 20:19 52.18962 5.69618 18056 ft 406 kts 108°
2026-04-29 20:20 52.17944 5.73923 18681 ft 409 kts 108°
2026-04-29 20:20 52.16894 5.78264 19280 ft 413 kts 108°
2026-04-29 20:20 52.15821 5.82620 19858 ft 416 kts 108°
2026-04-29 20:20 52.14749 5.86949 20418 ft 419 kts 108°
2026-04-29 20:21 52.13654 5.91387 20957 ft 423 kts 108°
2026-04-29 20:21 52.12558 5.95847 21473 ft 426 kts 108°
2026-04-29 20:21 52.11455 6.00332 21985 ft 428 kts 108°
2026-04-29 20:21 52.10341 6.04853 22457 ft 431 kts 108°
2026-04-29 20:22 52.09420 6.09484 22895 ft 430 kts 98°
2026-04-29 20:22 52.08954 6.14288 23331 ft 431 kts 96°
2026-04-29 20:22 52.08494 6.19117 23750 ft 434 kts 96°
2026-04-29 20:22 52.07988 6.23973 24151 ft 437 kts 97°
2026-04-29 20:23 52.07455 6.28848 24530 ft 439 kts 97°
2026-04-29 20:23 52.06922 6.33748 24917 ft 441 kts 97°
2026-04-29 20:23 52.06400 6.38682 25295 ft 443 kts 96°
2026-04-29 20:23 52.05886 6.43624 25655 ft 445 kts 96°
2026-04-29 20:24 52.05365 6.48604 25994 ft 448 kts 96°
2026-04-29 20:24 52.04834 6.53593 26349 ft 449 kts 96°
2026-04-29 20:24 52.04295 6.58582 26791 ft 448 kts 96°
2026-04-29 20:24 52.03756 6.63549 27233 ft 446 kts 96°
2026-04-29 20:25 52.03399 6.66835 27523 ft 445 kts 96°
2026-04-29 20:25 52.02680 6.73457 28107 ft 444 kts 96°
2026-04-29 20:25 52.02323 6.76716 28397 ft 443 kts 97°
2026-04-29 20:25 52.01431 6.83237 28986 ft 442 kts 100°
2026-04-29 20:26 52.00895 6.86425 29264 ft 442 kts 101°
2026-04-29 20:26 52.00047 6.91206 29686 ft 440 kts 101°
2026-04-29 20:26 51.99228 6.95996 30097 ft 438 kts 100°
2026-04-29 20:26 51.98242 7.02300 30682 ft 433 kts 99°
2026-04-29 20:27 51.97596 7.07056 31080 ft 429 kts 94°
2026-04-29 20:27 51.97491 7.08671 31201 ft 426 kts 89°
2026-04-29 20:27 51.97809 7.14973 31762 ft 416 kts 74°
2026-04-29 20:27 51.98669 7.19416 32147 ft 413 kts 69°
2026-04-29 20:28 51.99592 7.23821 32506 ft 412 kts 70°
2026-04-29 20:28 52.00461 7.28240 32870 ft 410 kts 71°
2026-04-29 20:28 52.01311 7.32652 33255 ft 408 kts 70°
2026-04-29 20:28 52.02168 7.37031 33640 ft 406 kts 70°
2026-04-29 20:29 52.03039 7.41384 34007 ft 404 kts 70°
2026-04-29 20:29 52.03911 7.45703 34372 ft 402 kts 70°
2026-04-29 20:29 52.04773 7.50013 34687 ft 402 kts 70°
2026-04-29 20:29 52.05631 7.54349 34951 ft 402 kts 70°
2026-04-29 20:30 52.06481 7.58673 35218 ft 403 kts 70°
2026-04-29 20:30 52.07322 7.62960 35477 ft 403 kts 70°
2026-04-29 20:30 52.08176 7.67302 35726 ft 404 kts 70°
2026-04-29 20:30 52.09033 7.71663 35952 ft 405 kts 70°
2026-04-29 20:31 52.09888 7.76026 36196 ft 405 kts 69°
2026-04-29 20:31 52.10743 7.80405 36429 ft 406 kts 69°
2026-04-29 20:31 52.11597 7.84791 36634 ft 407 kts 69°
2026-04-29 20:31 52.12448 7.89176 36945 ft 405 kts 69°
2026-04-29 20:32 52.13294 7.93541 37264 ft 403 kts 69°
2026-04-29 20:32 52.14138 7.97898 37390 ft 406 kts 69°
2026-04-29 20:32 52.15841 8.06712 37414 ft 409 kts 69°
2026-04-29 20:33 52.17530 8.15529 37422 ft 406 kts 69°
2026-04-29 20:33 52.19200 8.24290 37423 ft 404 kts 69°
2026-04-29 20:34 52.20390 8.33258 37441 ft 409 kts 79°
2026-04-29 20:34 52.21045 8.42501 37430 ft 410 kts 78°
2026-04-29 20:35 52.21754 8.51720 37427 ft 409 kts 78°
2026-04-29 20:35 52.22433 8.60935 37434 ft 410 kts 78°
2026-04-29 20:36 52.23097 8.70174 37439 ft 410 kts 78°
2026-04-29 20:36 52.23761 8.79363 37438 ft 411 kts 78°
2026-04-29 20:37 52.24420 8.88623 37438 ft 411 kts 78°
2026-04-29 20:37 52.25070 8.97875 37443 ft 410 kts 78°
2026-04-29 20:38 52.25715 9.07150 37451 ft 412 kts 78°
2026-04-29 20:38 52.26353 9.16461 37448 ft 412 kts 78°
2026-04-29 20:39 52.26984 9.25761 37463 ft 412 kts 79°
2026-04-29 20:39 52.27611 9.35074 37449 ft 412 kts 79°
2026-04-29 20:40 52.28228 9.44385 37443 ft 412 kts 79°
2026-04-29 20:40 52.28832 9.53635 37462 ft 413 kts 79°
2026-04-29 20:41 52.29436 9.62966 37459 ft 413 kts 79°
2026-04-29 20:41 52.30031 9.72288 37457 ft 412 kts 79°
2026-04-29 20:42 52.30619 9.81612 37466 ft 413 kts 79°
2026-04-29 20:42 52.31202 9.90962 37466 ft 414 kts 79°
2026-04-29 20:43 52.31776 10.00309 37465 ft 413 kts 79°
2026-04-29 20:43 52.32344 10.09670 37465 ft 414 kts 79°
2026-04-29 20:44 52.32905 10.19040 37462 ft 413 kts 79°
2026-04-29 20:44 52.33452 10.28333 37461 ft 413 kts 79°
2026-04-29 20:45 52.33998 10.37679 37472 ft 413 kts 79°
2026-04-29 20:45 52.34536 10.47046 37475 ft 414 kts 79°
2026-04-29 20:46 52.35065 10.56427 37472 ft 414 kts 79°
2026-04-29 20:46 52.35588 10.65784 37477 ft 413 kts 79°
2026-04-29 20:47 52.36102 10.75159 37471 ft 413 kts 79°
2026-04-29 20:47 52.36527 10.84542 37474 ft 416 kts 82°
2026-04-29 20:48 52.36634 10.94027 37479 ft 417 kts 83°
2026-04-29 20:48 52.36777 11.03506 37477 ft 416 kts 82°
2026-04-29 20:49 52.36984 11.12977 37476 ft 418 kts 82°
2026-04-29 20:49 52.37140 11.22493 37476 ft 418 kts 83°
2026-04-29 20:50 52.37286 11.32005 37477 ft 418 kts 83°
2026-04-29 20:50 52.37437 11.41387 37478 ft 418 kts 83°
2026-04-29 20:55 52.37551 11.48963 37475 ft 420 kts 83°